TimeCDT,TemperatureF,Dew PointF,Humidity,Sea Level PressureIn,VisibilityMPH,Wind Direction,Wind SpeedMPH,Gust SpeedMPH,PrecipitationIn,Events,Conditions,WindDirDegrees,DateUTC
12:55 AM,63.0,53.1,70,29.89,10.0,NNE,3.5,-,N/A,,Partly Cloudy,30,2012-10-17 05:55:00
1:55 AM,60.3,54.7,82,29.88,10.0,North,4.6,-,N/A,,Partly Cloudy,360,2012-10-17 06:55:00
2:55 AM,61.7,53.4,74,29.88,10.0,NE,3.5,-,N/A,,Clear,40,2012-10-17 07:55:00
3:55 AM,64.2,54.0,69,29.87,10.0,ENE,6.9,-,N/A,,Clear,60,2012-10-17 08:55:00
4:55 AM,65.7,56.5,72,29.87,10.0,ENE,4.6,-,N/A,,Overcast,70,2012-10-17 09:55:00
5:55 AM,63.9,55.2,73,29.88,10.0,ENE,5.8,-,N/A,,Partly Cloudy,60,2012-10-17 10:55:00
6:55 AM,62.4,51.1,66,29.90,10.0,NE,6.9,-,N/A,,Scattered Clouds,50,2012-10-17 11:55:00
7:55 AM,-9999,-9999,N/A,29.90,-9999.0,North,-9999.0,-,N/A,,Clear,0,2012-10-17 12:55:00
8:00 AM,68.0,50.0,52,29.91,7.0,NE,3.5,-,N/A,,Partly Cloudy,40,2012-10-17 13:00:00
8:55 AM,71.1,58.1,63,29.91,10.0,East,6.9,-,N/A,,Clear,80,2012-10-17 13:55:00
9:55 AM,75.2,59.0,57,29.92,10.0,ESE,10.4,-,N/A,,Clear,120,2012-10-17 14:55:00
10:00 AM,75.2,59.0,57,29.92,10.0,East,9.2,-,N/A,,Light Drizzle,100,2012-10-17 15:00:00
10:02 AM,75.2,59.0,57,29.92,10.0,East,10.4,-,N/A,,Clear,100,2012-10-17 15:02:00
10:16 AM,75.2,59.0,57,29.92,10.0,East,9.2,-,N/A,,Light Drizzle,100,2012-10-17 15:16:00
10:30 AM,75.2,59.0,57,29.92,10.0,Variable,6.9,-,N/A,,Clear,0,2012-10-17 15:30:00
10:44 AM,77.0,59.0,54,29.91,10.0,SE,6.9,-,N/A,Rain,Light Rain,140,2012-10-17 15:44:00
10:55 AM,76.8,59.7,55,29.91,10.0,East,9.2,-,0.00,Rain,Light Rain,80,2012-10-17 15:55:00
10:57 AM,77.0,59.0,54,29.91,10.0,East,8.1,-,N/A,,Clear,90,2012-10-17 15:57:00
10:59 AM,77.0,60.8,57,29.91,10.0,East,8.1,-,N/A,Rain,Light Rain,80,2012-10-17 15:59:00
11:04 AM,77.0,59.0,54,29.91,10.0,East,6.9,-,N/A,,Clear,90,2012-10-17 16:04:00
11:39 AM,77.0,59.0,54,29.91,10.0,SE,9.2,-,N/A,,Light Drizzle,130,2012-10-17 16:39:00
11:41 AM,77.0,59.0,54,29.91,10.0,SE,8.1,-,N/A,,Clear,130,2012-10-17 16:41:00
11:55 AM,77.4,59.4,54,29.90,10.0,ESE,10.4,-,0.00,,Clear,120,2012-10-17 16:55:00
12:55 PM,78.1,63.0,60,29.88,10.0,SE,9.2,-,N/A,,Clear,130,2012-10-17 17:55:00
1:13 PM,78.8,64.4,61,29.86,10.0,ESE,10.4,-,N/A,,Light Drizzle,110,2012-10-17 18:13:00
1:23 PM,78.8,64.4,61,29.86,10.0,SE,8.1,-,N/A,,Clear,140,2012-10-17 18:23:00
1:55 PM,77.7,65.1,65,29.84,10.0,SSE,12.7,-,0.00,,Clear,150,2012-10-17 18:55:00
2:47 PM,77.0,66.2,69,29.83,10.0,ESE,11.5,-,N/A,Rain,Light Rain,110,2012-10-17 19:47:00
2:50 PM,77.0,66.2,69,29.83,10.0,SSE,5.8,-,N/A,,Clear,150,2012-10-17 19:50:00
2:55 PM,79.3,66.0,64,29.82,10.0,South,15.0,20.7,0.00,,Partly Cloudy,180,2012-10-17 19:55:00
3:55 PM,78.1,63.1,60,29.82,10.0,South,15.0,-,N/A,,Clear,180,2012-10-17 20:55:00
4:55 PM,76.3,63.3,64,29.82,10.0,South,10.4,-,N/A,,Clear,180,2012-10-17 21:55:00
5:55 PM,74.3,62.4,66,29.82,10.0,South,9.2,-,N/A,,Clear,170,2012-10-17 22:55:00
6:55 PM,72.9,62.8,71,29.83,10.0,South,6.9,-,N/A,,Clear,170,2012-10-17 23:55:00
7:55 PM,72.9,63.9,73,29.84,10.0,Calm,Calm,-,N/A,,Scattered Clouds,0,2012-10-18 00:55:00
8:55 PM,70.9,63.3,77,29.87,10.0,Calm,Calm,-,N/A,,Clear,0,2012-10-18 01:55:00
8:56 PM,69.8,62.6,78,29.87,10.0,Calm,Calm,-,N/A,,Light Drizzle,0,2012-10-18 01:56:00
9:05 PM,66.2,62.6,88,29.87,10.0,Calm,Calm,-,N/A,,Clear,0,2012-10-18 02:05:00
9:55 PM,68.5,63.7,84,29.85,10.0,South,5.8,-,0.00,,Clear,170,2012-10-18 02:55:00
10:55 PM,72.3,65.3,78,29.83,10.0,South,12.7,-,N/A,,Clear,170,2012-10-18 03:55:00
11:55 PM,72.3,66.0,80,29.82,10.0,South,13.8,-,N/A,,Clear,170,2012-10-18 04:55:00